Lid_Strength_Index
12 14 17 16 15 15 16 17 18 16 14 15 16 15 13 13 12 13 12 12 12 11 10 9 8 8 9 9 10 9 8 7 7 8 9 9 7 6 4 5 5 5 4 -0
14 16 14 13 13 14 15 17 18 16 13 14 15 15 13 13 12 12 12 12 12 11 11 9 9 9 9 10 10 10 9 8 8 8 8 8 8 6 5 5 6 6 6 2
16 14 12 13 14 15 16 17 18 17 15 14 16 18 15 14 12 12 11 11 11 12 11 11 10 10 10 11 11 10 10 9 8 8 7 7 6 6 6 7 7 6 6 5
16 13 14 15 15 15 18 15 15 15 18 20 16 23 18 15 14 13 12 12 12 12 11 10 10 11 11 11 11 9 9 9 8 9 9 9 8 8 7 7 6 7 7 5
17 16 16 16 15 14 16 15 16 16 17 19 18 22 18 16 16 14 13 13 12 12 11 11 11 10 11 11 11 11 9 8 9 9 9 10 10 8 8 7 7 8 8 7
17 13 14 15 14 14 14 16 16 17 18 25 18 21 21 17 16 15 14 12 12 12 12 11 10 10 11 12 12 11 11 10 9 10 10 10 10 10 8 7 9 9 8 8
17 17 15 14 16 14 16 18 25 24 24 24 19 22 20 17 15 14 14 13 12 12 12 12 11 11 12 13 12 11 11 11 10 11 11 10 10 9 9 9 8 9 9 9
22 22 17 14 16 17 18 19 24 26 24 23 20 21 18 15 14 13 13 12 12 12 12 12 11 11 12 12 12 12 11 11 11 11 11 10 9 10 10 9 8 8 8 9
22 21 17 15 14 16 17 20 17 23 26 24 22 18 17 15 16 14 13 13 13 13 12 12 12 12 12 13 13 12 12 11 12 12 11 12 12 11 11 10 9 9 8 8
18 22 19 17 15 15 17 16 21 22 26 26 22 20 20 18 17 15 14 14 14 14 13 12 12 12 12 13 13 12 12 11 12 12 12 11 11 11 11 10 10 10 9 8
19 19 19 19 20 18 19 20 20 19 20 25 26 20 16 16 15 15 14 13 14 15 14 14 13 12 12 13 13 13 12 11 11 12 12 12 12 12 11 11 11 11 10 9
17 18 22 21 19 17 17 18 19 23 23 23 22 20 15 15 14 14 14 13 14 14 14 14 13 13 13 13 13 13 13 12 11 10 10 11 12 12 12 12 12 11 11 10
17 20 24 21 19 18 20 18 18 20 20 24 23 19 14 16 16 15 15 14 13 13 14 14 14 13 13 14 14 14 13 12 11 10 10 10 10 11 11 11 11 11 11 10
14 20 20 20 18 19 22 20 18 20 26 22 20 18 15 16 17 15 16 16 15 15 15 14 14 14 14 15 15 14 14 13 12 11 11 11 11 11 11 11 11 10 10 10
17 21 23 22 19 19 19 20 21 21 20 21 18 19 14 17 16 15 15 14 16 17 18 18 18 18 15 15 15 15 14 14 12 12 12 11 10 10 10 11 11 10 10 10
16 18 20 22 21 20 21 19 20 19 22 21 19 18 13 12 14 16 16 16 16 16 17 18 17 17 17 15 16 15 17 14 13 13 12 12 11 11 11 11 11 11 11 10
17 17 18 19 23 21 20 19 19 20 19 19 20 15 15 15 14 14 14 15 16 15 15 15 15 16 17 17 15 16 15 14 14 14 14 14 14 12 12 11 11 11 11 11
17 17 17 19 21 20 16 16 17 18 17 17 17 15 15 14 13 13 13 13 14 14 14 13 14 15 16 16 17 16 15 15 14 14 14 14 14 14 13 13 12 11 11 11
15 16 18 19 24 18 15 17 18 18 15 15 16 15 14 14 14 13 13 13 12 13 13 13 13 14 15 16 16 16 16 15 15 14 14 14 14 15 15 14 14 14 14 13
17 16 15 18 20 20 15 16 15 16 17 14 15 15 16 15 17 16 14 14 13 12 12 13 13 15 15 16 16 16 16 16 16 15 15 15 15 14 15 15 15 15 15 14
19 19 19 18 18 17 14 16 16 18 14 16 16 15 15 16 15 15 14 14 14 13 13 13 14 15 15 16 16 16 16 16 15 15 15 16 15 15 15 15 15 15 15 16
19 19 20 18 19 20 15 17 16 13 16 16 16 17 15 15 16 16 16 15 14 14 14 14 15 16 16 16 16 17 17 16 17 17 17 18 19 16 16 18 18 18 17 18
18 16 19 17 17 14 15 13 14 14 15 15 16 16 15 15 15 15 15 15 14 14 14 14 15 16 19 18 17 18 19 19 20 20 19 20 19 18 18 19 20 19 19 19
18 16 18 17 15 15 14 13 14 14 14 14 15 15 15 15 15 15 15 15 15 16 16 17 17 17 17 19 18 17 19 19 19 20 20 20 20 20 21 18 17 19 20 20
17 16 19 19 16 15 14 14 13 13 13 14 15 14 14 15 15 15 15 16 16 16 18 18 17 16 16 18 18 19 19 19 19 19 20 19 19 19 19 19 18 17 18 17
17 17 16 17 14 12 11 12 13 13 13 13 14 15 15 15 15 16 15 16 17 17 18 17 17 18 17 17 17 19 18 18 18 18 19 19 19 19 19 19 19 15 14 14